Time,TemperatureF,DewpointF,PressureIn,WindDirection,WindDirectionDegrees,WindSpeedMPH,WindSpeedGustMPH,Humidity,HourlyPrecipIn,Conditions,Clouds,dailyrainin,SoftwareType,DateUTC
2013-07-03 00:05:00,60.7,59.6,30.16,North,-999,0.0,0.0,96,0.00,,,-99.99,WeatherLink 5.7,2013-07-03 04:05:00,
2013-07-03 00:10:00,60.9,59.8,30.16,North,-999,0.0,0.0,96,0.00,,,-99.99,WeatherLink 5.7,2013-07-03 04:10:00,
2013-07-03 00:15:00,60.9,59.8,30.15,North,-999,0.0,0.0,96,0.00,,,-99.99,WeatherLink 5.7,2013-07-03 04:15:00,
2013-07-03 00:25:00,60.9,59.8,30.15,North,-999,0.0,0.0,96,0.00,,,-99.99,WeatherLink 5.7,2013-07-03 04:25:00,
2013-07-03 00:30:00,60.7,59.6,30.15,North,0,0.0,1.0,96,0.00,,,-99.99,WeatherLink 5.7,2013-07-03 04:30:00,
2013-07-03 00:35:00,60.7,59.6,30.15,North,-999,0.0,0.0,96,0.00,,,-99.99,WeatherLink 5.7,2013-07-03 04:35:00,
2013-07-03 00:40:00,60.7,59.6,30.15,North,-999,0.0,0.0,96,0.00,,,-99.99,WeatherLink 5.7,2013-07-03 04:40:00,
2013-07-03 00:50:00,60.7,59.6,30.15,NW,315,1.0,3.0,96,0.00,,,-99.99,WeatherLink 5.7,2013-07-03 04:50:00,
2013-07-03 01:00:00,60.5,59.4,30.15,North,-999,0.0,0.0,96,0.00,,,-99.99,WeatherLink 5.7,2013-07-03 05:00:00,
2013-07-03 01:05:00,60.5,59.4,30.15,North,-999,0.0,0.0,96,0.00,,,-99.99,WeatherLink 5.7,2013-07-03 05:05:00,
2013-07-03 01:15:00,60.5,59.4,30.14,North,-999,0.0,0.0,96,0.00,,,-99.99,WeatherLink 5.7,2013-07-03 05:15:00,
2013-07-03 01:25:00,60.5,59.4,30.14,North,-999,0.0,0.0,96,0.00,,,-99.99,WeatherLink 5.7,2013-07-03 05:25:00,
2013-07-03 01:30:00,60.5,59.4,30.14,North,-999,0.0,0.0,96,0.00,,,-99.99,WeatherLink 5.7,2013-07-03 05:30:00,
2013-07-03 01:40:00,60.5,59.4,30.14,North,-999,0.0,0.0,96,0.00,,,-99.99,WeatherLink 5.7,2013-07-03 05:40:00,
2013-07-03 01:50:00,60.5,59.4,30.13,North,-999,0.0,0.0,96,0.00,,,-99.99,WeatherLink 5.7,2013-07-03 05:50:00,
2013-07-03 01:55:00,60.5,59.4,30.13,North,-999,0.0,0.0,96,0.00,,,-99.99,WeatherLink 5.7,2013-07-03 05:55:00,
2013-07-03 02:00:00,60.5,59.4,30.14,North,-999,0.0,0.0,96,0.00,,,-99.99,WeatherLink 5.7,2013-07-03 06:00:00,
2013-07-03 02:05:00,60.5,59.4,30.14,North,-999,0.0,0.0,96,0.00,,,-99.99,WeatherLink 5.7,2013-07-03 06:05:00,
2013-07-03 02:10:00,60.5,59.6,30.14,North,-999,0.0,0.0,97,0.00,,,-99.99,WeatherLink 5.7,2013-07-03 06:10:00,
2013-07-03 02:20:00,60.5,59.6,30.13,North,-999,0.0,0.0,97,0.00,,,-99.99,WeatherLink 5.7,2013-07-03 06:20:00,
2013-07-03 02:25:00,60.5,59.6,30.13,North,-999,0.0,0.0,97,0.00,,,-99.99,WeatherLink 5.7,2013-07-03 06:25:00,
2013-07-03 02:30:00,60.5,59.6,30.13,North,-999,0.0,0.0,97,0.00,,,-99.99,WeatherLink 5.7,2013-07-03 06:30:00,
2013-07-03 02:40:00,60.5,59.6,30.13,North,-999,0.0,0.0,97,0.00,,,-99.99,WeatherLink 5.7,2013-07-03 06:40:00,
2013-07-03 02:50:00,60.7,59.8,30.13,North,-999,0.0,0.0,97,0.00,,,-99.99,WeatherLink 5.7,2013-07-03 06:50:00,
2013-07-03 02:55:00,60.7,59.8,30.13,North,-999,0.0,0.0,97,0.00,,,-99.99,WeatherLink 5.7,2013-07-03 06:55:00,
2013-07-03 03:00:00,60.7,59.8,30.13,North,-999,0.0,0.0,97,0.00,,,-99.99,WeatherLink 5.7,2013-07-03 07:00:00,
2013-07-03 03:10:00,60.7,59.8,30.13,North,-999,0.0,0.0,97,0.00,,,-99.99,WeatherLink 5.7,2013-07-03 07:10:00,
2013-07-03 03:20:00,60.9,60.0,30.13,North,-999,0.0,0.0,97,0.00,,,-99.99,WeatherLink 5.7,2013-07-03 07:20:00,
2013-07-03 03:30:00,60.7,59.8,30.12,North,-999,0.0,0.0,97,0.00,,,-99.99,WeatherLink 5.7,2013-07-03 07:30:00,
2013-07-03 03:35:00,60.9,60.0,30.12,North,-999,0.0,0.0,97,0.00,,,-99.99,WeatherLink 5.7,2013-07-03 07:35:00,
2013-07-03 03:40:00,60.9,60.0,30.12,North,-999,0.0,0.0,97,0.00,,,-99.99,WeatherLink 5.7,2013-07-03 07:40:00,
2013-07-03 03:45:00,60.9,60.0,30.12,North,-999,0.0,0.0,97,0.00,,,-99.99,WeatherLink 5.7,2013-07-03 07:45:00,
2013-07-03 03:50:00,60.9,60.0,30.12,North,-999,0.0,0.0,97,0.00,,,-99.99,WeatherLink 5.7,2013-07-03 07:50:00,
2013-07-03 04:00:00,61.0,60.1,30.12,North,-999,0.0,0.0,97,0.00,,,-99.99,WeatherLink 5.7,2013-07-03 08:00:00,
2013-07-03 04:05:00,61.0,60.1,30.12,North,-999,0.0,0.0,97,0.00,,,-99.99,WeatherLink 5.7,2013-07-03 08:05:00,
2013-07-03 04:15:00,61.0,60.1,30.12,North,-999,0.0,0.0,97,0.00,,,-99.99,WeatherLink 5.7,2013-07-03 08:15:00,
2013-07-03 04:20:00,61.0,60.1,30.12,North,-999,0.0,0.0,97,0.00,,,-99.99,WeatherLink 5.7,2013-07-03 08:20:00,
2013-07-03 04:30:00,61.2,60.3,30.12,North,-999,0.0,0.0,97,0.00,,,-99.99,WeatherLink 5.7,2013-07-03 08:30:00,
2013-07-03 04:36:00,61.0,60.1,30.12,North,-999,0.0,0.0,97,0.00,,,-99.99,WeatherLink 5.7,2013-07-03 08:36:00,
2013-07-03 04:50:00,61.2,60.3,30.12,North,-999,0.0,0.0,97,0.00,,,-99.99,WeatherLink 5.7,2013-07-03 08:50:00,
2013-07-03 05:00:00,61.3,60.4,30.12,North,-999,0.0,0.0,97,0.00,,,-99.99,WeatherLink 5.7,2013-07-03 09:00:00,
2013-07-03 05:10:00,61.3,60.4,30.11,North,-999,0.0,0.0,97,0.00,,,-99.99,WeatherLink 5.7,2013-07-03 09:10:00,
2013-07-03 05:20:00,61.5,60.6,30.11,ESE,112,0.0,2.0,97,0.00,,,-99.99,WeatherLink 5.7,2013-07-03 09:20:00,
2013-07-03 05:25:00,61.5,60.6,30.11,ESE,112,0.0,1.0,97,0.00,,,-99.99,WeatherLink 5.7,2013-07-03 09:25:00,
2013-07-03 05:35:00,61.6,60.7,30.11,North,-999,0.0,0.0,97,0.00,,,-99.99,WeatherLink 5.7,2013-07-03 09:35:00,
2013-07-03 05:45:00,61.6,60.7,30.11,ESE,112,0.0,2.0,97,0.00,,,-99.99,WeatherLink 5.7,2013-07-03 09:45:00,
2013-07-03 05:50:00,61.8,60.9,30.12,North,-999,0.0,0.0,97,0.00,,,-99.99,WeatherLink 5.7,2013-07-03 09:50:00,
2013-07-03 05:55:00,62.0,61.1,30.12,North,-999,0.0,0.0,97,0.00,,,-99.99,WeatherLink 5.7,2013-07-03 09:55:00,
2013-07-03 06:05:00,62.0,61.1,30.13,North,-999,0.0,0.0,97,0.00,,,-99.99,WeatherLink 5.7,2013-07-03 10:05:00,
2013-07-03 06:15:00,62.1,61.2,30.13,North,-999,0.0,0.0,97,0.00,,,-99.99,WeatherLink 5.7,2013-07-03 10:15:00,
2013-07-03 06:25:00,62.4,61.5,30.13,North,-999,0.0,0.0,97,0.00,,,-99.99,WeatherLink 5.7,2013-07-03 10:25:00,
2013-07-03 06:35:00,62.6,61.7,30.13,North,-999,0.0,0.0,97,0.00,,,-99.99,WeatherLink 5.7,2013-07-03 10:35:00,
2013-07-03 06:40:00,62.7,61.8,30.13,East,90,0.0,1.0,97,0.00,,,-99.99,WeatherLink 5.7,2013-07-03 10:40:00,
2013-07-03 06:50:00,62.9,62.0,30.14,North,-999,0.0,0.0,97,0.00,,,-99.99,WeatherLink 5.7,2013-07-03 10:50:00,
2013-07-03 06:55:00,63.1,62.2,30.14,North,-999,0.0,0.0,97,0.00,,,-99.99,WeatherLink 5.7,2013-07-03 10:55:00,
2013-07-03 07:05:00,63.4,62.5,30.14,North,-999,0.0,0.0,97,0.00,,,-99.99,WeatherLink 5.7,2013-07-03 11:05:00,
2013-07-03 07:15:00,63.7,62.5,30.14,North,-999,0.0,0.0,96,0.00,,,-99.99,WeatherLink 5.7,2013-07-03 11:15:00,
2013-07-03 07:20:00,63.9,62.7,30.14,North,-999,0.0,0.0,96,0.00,,,-99.99,WeatherLink 5.7,2013-07-03 11:20:00,
2013-07-03 07:25:00,64.2,63.0,30.14,North,-999,0.0,0.0,96,0.00,,,-99.99,WeatherLink 5.7,2013-07-03 11:25:00,
2013-07-03 07:35:00,64.8,63.6,30.14,ESE,112,0.0,3.0,96,0.00,,,-99.99,WeatherLink 5.7,2013-07-03 11:35:00,
2013-07-03 07:45:00,66.1,64.6,30.14,SE,135,1.0,5.0,95,0.00,,,-99.99,WeatherLink 5.7,2013-07-03 11:45:00,
2013-07-03 07:50:00,66.8,65.0,30.14,ESE,112,0.0,4.0,94,0.00,,,-99.99,WeatherLink 5.7,2013-07-03 11:50:00,
2013-07-03 07:55:00,67.4,65.3,30.14,SE,135,0.0,1.0,93,0.00,,,-99.99,WeatherLink 5.7,2013-07-03 11:55:00,
2013-07-03 08:05:00,68.8,66.4,30.14,SSE,157,1.0,3.0,92,0.00,,,-99.99,WeatherLink 5.7,2013-07-03 12:05:00,
2013-07-03 08:10:00,69.8,67.4,30.14,SE,135,1.0,3.0,92,0.00,,,-99.99,WeatherLink 5.7,2013-07-03 12:10:00,
2013-07-03 08:20:00,71.1,67.7,30.13,North,0,0.0,2.0,89,0.00,,,-99.99,WeatherLink 5.7,2013-07-03 12:20:00,
2013-07-03 08:25:00,71.6,67.9,30.13,SE,135,0.0,1.0,88,0.00,,,-99.99,WeatherLink 5.7,2013-07-03 12:25:00,
2013-07-03 08:30:00,72.0,67.9,30.13,West,270,0.0,1.0,87,0.00,,,-99.99,WeatherLink 5.7,2013-07-03 12:30:00,
2013-07-03 08:40:00,72.8,68.7,30.13,SSW,202,0.0,6.0,87,0.00,,,-99.99,WeatherLink 5.7,2013-07-03 12:40:00,
2013-07-03 08:45:00,73.5,69.1,30.13,SSE,157,0.0,3.0,86,0.00,,,-99.99,WeatherLink 5.7,2013-07-03 12:45:00,
2013-07-03 08:50:00,74.4,69.2,30.13,South,180,1.0,2.0,84,0.00,,,-99.99,WeatherLink 5.7,2013-07-03 12:50:00,
2013-07-03 08:55:00,75.4,69.5,30.13,South,180,1.0,3.0,82,0.00,,,-99.99,WeatherLink 5.7,2013-07-03 12:55:00,
2013-07-03 09:00:00,76.5,70.2,30.13,WNW,292,0.0,2.0,81,0.00,,,-99.99,WeatherLink 5.7,2013-07-03 13:00:00,
2013-07-03 09:05:00,77.7,69.9,30.13,WSW,247,2.0,7.0,77,0.00,,,-99.99,WeatherLink 5.7,2013-07-03 13:05:00,
2013-07-03 09:11:00,78.5,70.3,30.13,WSW,247,2.0,8.0,76,0.00,,,-99.99,WeatherLink 5.7,2013-07-03 13:11:00,
2013-07-03 09:20:00,79.2,71.0,30.13,ENE,67,1.0,5.0,76,0.00,,,-99.99,WeatherLink 5.7,2013-07-03 13:20:00,
2013-07-03 09:25:00,79.6,71.0,30.13,North,0,2.0,4.0,75,0.00,,,-99.99,WeatherLink 5.7,2013-07-03 13:25:00,
2013-07-03 09:30:00,80.5,71.8,30.13,WSW,247,1.0,6.0,75,0.00,,,-99.99,WeatherLink 5.7,2013-07-03 13:30:00,
2013-07-03 09:35:00,81.2,71.7,30.13,West,270,1.0,3.0,73,0.00,,,-99.99,WeatherLink 5.7,2013-07-03 13:35:00,
2013-07-03 09:40:00,81.8,71.5,30.13,South,180,1.0,5.0,71,0.00,,,-99.99,WeatherLink 5.7,2013-07-03 13:40:00,
2013-07-03 09:50:00,82.6,71.4,30.13,WSW,247,1.0,3.0,69,0.00,,,-99.99,WeatherLink 5.7,2013-07-03 13:50:00,
2013-07-03 10:00:00,82.8,72.0,30.13,North,0,1.0,3.0,70,0.00,,,-99.99,WeatherLink 5.7,2013-07-03 14:00:00,
2013-07-03 10:05:00,83.0,72.2,30.13,SW,225,2.0,7.0,70,0.00,,,-99.99,WeatherLink 5.7,2013-07-03 14:05:00,
2013-07-03 10:10:00,83.0,71.8,30.13,SW,225,1.0,5.0,69,0.00,,,-99.99,WeatherLink 5.7,2013-07-03 14:10:00,
2013-07-03 10:15:00,83.4,71.3,30.14,ENE,67,1.0,6.0,67,0.00,,,-99.99,WeatherLink 5.7,2013-07-03 14:15:00,
2013-07-03 10:25:00,84.3,71.7,30.14,SW,225,2.0,6.0,66,0.00,,,-99.99,WeatherLink 5.7,2013-07-03 14:25:00,
2013-07-03 10:35:00,84.3,71.7,30.14,SW,225,1.0,6.0,66,0.00,,,-99.99,WeatherLink 5.7,2013-07-03 14:35:00,
2013-07-03 10:45:00,84.0,71.9,30.14,ENE,67,0.0,3.0,67,0.00,,,-99.99,WeatherLink 5.7,2013-07-03 14:45:00,
2013-07-03 10:50:00,83.6,72.3,30.14,NNE,22,1.0,3.0,69,0.00,,,-99.99,WeatherLink 5.7,2013-07-03 14:50:00,
2013-07-03 10:55:00,83.0,71.3,30.14,SW,225,1.0,5.0,68,0.00,,,-99.99,WeatherLink 5.7,2013-07-03 14:55:00,
2013-07-03 11:00:00,82.8,71.6,30.14,South,180,0.0,2.0,69,0.00,,,-99.99,WeatherLink 5.7,2013-07-03 15:00:00,
2013-07-03 11:05:00,82.4,72.0,30.14,WSW,247,2.0,6.0,71,0.00,,,-99.99,WeatherLink 5.7,2013-07-03 15:05:00,
2013-07-03 11:10:00,82.0,71.2,30.14,WSW,247,1.0,6.0,70,0.00,,,-99.99,WeatherLink 5.7,2013-07-03 15:10:00,
2013-07-03 11:15:00,81.8,71.1,30.14,North,0,0.0,2.0,70,0.00,,,-99.99,WeatherLink 5.7,2013-07-03 15:15:00,
2013-07-03 11:21:00,81.8,71.1,30.14,South,180,1.0,3.0,70,0.00,,,-99.99,WeatherLink 5.7,2013-07-03 15:21:00,
2013-07-03 11:31:00,82.4,71.2,30.14,South,180,1.0,2.0,69,0.00,,,-99.99,WeatherLink 5.7,2013-07-03 15:31:00,
2013-07-03 11:40:00,83.0,71.3,30.14,West,270,0.0,2.0,68,0.00,,,-99.99,WeatherLink 5.7,2013-07-03 15:40:00,
2013-07-03 11:50:00,83.6,71.5,30.14,South,180,2.0,6.0,67,0.00,,,-99.99,WeatherLink 5.7,2013-07-03 15:50:00,
2013-07-03 11:55:00,83.8,71.7,30.14,West,270,1.0,3.0,67,0.00,,,-99.99,WeatherLink 5.7,2013-07-03 15:55:00,
2013-07-03 12:00:00,84.3,71.7,30.14,West,270,1.0,4.0,66,0.00,,,-99.99,WeatherLink 5.7,2013-07-03 16:00:00,
2013-07-03 12:05:00,83.8,71.7,30.14,ESE,112,1.0,6.0,67,0.00,,,-99.99,WeatherLink 5.7,2013-07-03 16:05:00,
2013-07-03 12:10:00,83.8,72.5,30.14,WSW,247,1.0,5.0,69,0.00,,,-99.99,WeatherLink 5.7,2013-07-03 16:10:00,
2013-07-03 12:15:00,83.6,71.5,30.14,WSW,247,0.0,2.0,67,0.00,,,-99.99,WeatherLink 5.7,2013-07-03 16:15:00,
2013-07-03 12:25:00,84.1,71.5,30.14,SW,225,2.0,6.0,66,0.00,,,-99.99,WeatherLink 5.7,2013-07-03 16:25:00,
2013-07-03 12:35:00,85.3,70.8,30.13,SSW,202,1.0,7.0,62,0.00,,,-99.99,WeatherLink 5.7,2013-07-03 16:35:00,
2013-07-03 12:45:00,85.5,71.5,30.13,SW,225,2.0,6.0,63,0.00,,,-99.99,WeatherLink 5.7,2013-07-03 16:45:00,
2013-07-03 12:55:00,85.5,71.5,30.13,West,270,1.0,3.0,63,0.00,,,-99.99,WeatherLink 5.7,2013-07-03 16:55:00,
2013-07-03 13:00:00,85.9,71.4,30.13,NW,315,1.0,3.0,62,0.00,,,-99.99,WeatherLink 5.7,2013-07-03 17:00:00,
2013-07-03 13:10:00,86.5,72.4,30.13,WNW,292,0.0,2.0,63,0.00,,,-99.99,WeatherLink 5.7,2013-07-03 17:10:00,
2013-07-03 13:20:00,86.7,72.1,30.12,SW,225,1.0,6.0,62,0.00,,,-99.99,WeatherLink 5.7,2013-07-03 17:20:00,
2013-07-03 13:30:00,86.5,73.3,30.12,SE,135,1.0,9.0,65,0.00,,,-99.99,WeatherLink 5.7,2013-07-03 17:30:00,
2013-07-03 13:35:00,87.2,74.5,30.12,WSW,247,2.0,5.0,66,0.00,,,-99.99,WeatherLink 5.7,2013-07-03 17:35:00,
2013-07-03 13:45:00,88.0,72.9,30.11,SSW,202,2.0,4.0,61,0.00,,,-99.99,WeatherLink 5.7,2013-07-03 17:45:00,
2013-07-03 13:55:00,89.3,71.5,30.11,WNW,292,2.0,7.0,56,0.00,,,-99.99,WeatherLink 5.7,2013-07-03 17:55:00,
2013-07-03 14:05:00,89.5,71.7,30.11,WSW,247,2.0,5.0,56,0.00,,,-99.99,WeatherLink 5.7,2013-07-03 18:05:00,
2013-07-03 14:15:00,89.0,71.8,30.11,SSW,202,1.0,5.0,57,0.00,,,-99.99,WeatherLink 5.7,2013-07-03 18:15:00,
2013-07-03 14:20:00,88.8,71.1,30.11,SSW,202,2.0,6.0,56,0.00,,,-99.99,WeatherLink 5.7,2013-07-03 18:20:00,
2013-07-03 14:30:00,88.6,72.4,30.11,NE,45,1.0,5.0,59,0.00,,,-99.99,WeatherLink 5.7,2013-07-03 18:30:00,
2013-07-03 14:40:00,89.3,73.1,30.11,WSW,247,1.0,5.0,59,0.00,,,-99.99,WeatherLink 5.7,2013-07-03 18:40:00,
2013-07-03 14:45:00,89.7,74.9,30.10,North,0,1.0,4.0,62,0.00,,,-99.99,WeatherLink 5.7,2013-07-03 18:45:00,
2013-07-03 14:55:00,90.1,72.3,30.10,NW,315,1.0,8.0,56,0.00,,,-99.99,WeatherLink 5.7,2013-07-03 18:55:00,
2013-07-03 15:05:00,89.9,72.1,30.10,WSW,247,1.0,5.0,56,0.00,,,-99.99,WeatherLink 5.7,2013-07-03 19:05:00,
2013-07-03 15:15:00,89.9,73.7,30.10,WNW,292,2.0,6.0,59,0.00,,,-99.99,WeatherLink 5.7,2013-07-03 19:15:00,
2013-07-03 15:20:00,89.5,71.7,30.10,WNW,292,2.0,6.0,56,0.00,,,-99.99,WeatherLink 5.7,2013-07-03 19:20:00,
2013-07-03 15:26:00,89.7,71.4,30.10,WSW,247,2.0,5.0,55,0.00,,,-99.99,WeatherLink 5.7,2013-07-03 19:26:00,
2013-07-03 15:35:00,89.7,71.9,30.09,SW,225,1.0,5.0,56,0.00,,,-99.99,WeatherLink 5.7,2013-07-03 19:35:00,
2013-07-03 15:45:00,89.0,72.3,30.09,West,270,2.0,7.0,58,0.00,,,-99.99,WeatherLink 5.7,2013-07-03 19:45:00,
2013-07-03 15:56:00,89.0,71.3,30.09,WNW,292,3.0,8.0,56,0.00,,,-99.99,WeatherLink 5.7,2013-07-03 19:56:00,
2013-07-03 16:05:00,88.8,72.1,30.08,West,270,2.0,6.0,58,0.00,,,-99.99,WeatherLink 5.7,2013-07-03 20:05:00,
2013-07-03 16:10:00,88.8,71.6,30.08,WSW,247,2.0,6.0,57,0.00,,,-99.99,WeatherLink 5.7,2013-07-03 20:10:00,
2013-07-03 16:20:00,88.2,71.6,30.08,ENE,67,1.0,5.0,58,0.00,,,-99.99,WeatherLink 5.7,2013-07-03 20:20:00,
2013-07-03 16:25:00,88.0,71.9,30.08,South,180,2.0,4.0,59,0.00,,,-99.99,WeatherLink 5.7,2013-07-03 20:25:00,
2013-07-03 16:35:00,87.6,73.0,30.08,East,90,1.0,2.0,62,0.00,,,-99.99,WeatherLink 5.7,2013-07-03 20:35:00,
2013-07-03 16:40:00,87.4,72.8,30.08,WSW,247,1.0,3.0,62,0.00,,,-99.99,WeatherLink 5.7,2013-07-03 20:40:00,
2013-07-03 16:50:00,86.5,71.9,30.08,WSW,247,1.0,4.0,62,0.00,,,-99.99,WeatherLink 5.7,2013-07-03 20:50:00,
2013-07-03 16:55:00,86.3,71.7,30.08,ENE,67,1.0,5.0,62,0.00,,,-99.99,WeatherLink 5.7,2013-07-03 20:55:00,
2013-07-03 17:05:00,86.1,72.0,30.08,WSW,247,1.0,4.0,63,0.00,,,-99.99,WeatherLink 5.7,2013-07-03 21:05:00,
2013-07-03 17:10:00,86.1,71.6,30.08,WSW,247,0.0,1.0,62,0.00,,,-99.99,WeatherLink 5.7,2013-07-03 21:10:00,
2013-07-03 17:20:00,85.9,72.8,30.08,SSW,202,0.0,2.0,65,0.00,,,-99.99,WeatherLink 5.7,2013-07-03 21:20:00,
2013-07-03 17:30:00,85.5,71.5,30.07,SSE,157,0.0,2.0,63,0.00,,,-99.99,WeatherLink 5.7,2013-07-03 21:30:00,
2013-07-03 17:41:00,85.1,72.0,30.07,SSW,202,0.0,1.0,65,0.00,,,-99.99,WeatherLink 5.7,2013-07-03 21:41:00,
2013-07-03 17:50:00,85.1,72.5,30.08,North,-999,0.0,0.0,66,0.00,,,-99.99,WeatherLink 5.7,2013-07-03 21:50:00,
2013-07-03 17:56:00,84.9,72.7,30.08,SSE,157,0.0,2.0,67,0.00,,,-99.99,WeatherLink 5.7,2013-07-03 21:56:00,
2013-07-03 18:05:00,84.7,72.5,30.07,WSW,247,1.0,2.0,67,0.00,,,-99.99,WeatherLink 5.7,2013-07-03 22:05:00,
2013-07-03 18:10:00,84.7,72.1,30.07,WSW,247,0.0,1.0,66,0.00,,,-99.99,WeatherLink 5.7,2013-07-03 22:10:00,
2013-07-03 18:20:00,84.3,71.7,30.07,WSW,247,1.0,3.0,66,0.00,,,-99.99,WeatherLink 5.7,2013-07-03 22:20:00,
2013-07-03 18:30:00,84.3,72.1,30.07,East,90,0.0,2.0,67,0.00,,,-99.99,WeatherLink 5.7,2013-07-03 22:30:00,
2013-07-03 18:35:00,84.1,72.4,30.07,North,-999,0.0,0.0,68,0.00,,,-99.99,WeatherLink 5.7,2013-07-03 22:35:00,
2013-07-03 18:40:00,84.0,72.3,30.07,WNW,292,0.0,2.0,68,0.00,,,-99.99,WeatherLink 5.7,2013-07-03 22:40:00,
2013-07-03 18:50:00,83.6,72.3,30.07,WNW,292,0.0,2.0,69,0.00,,,-99.99,WeatherLink 5.7,2013-07-03 22:50:00,
2013-07-03 18:55:00,83.4,72.2,30.07,NW,315,0.0,3.0,69,0.00,,,-99.99,WeatherLink 5.7,2013-07-03 22:55:00,
2013-07-03 19:05:00,83.4,71.7,30.07,NE,45,0.0,2.0,68,0.00,,,-99.99,WeatherLink 5.7,2013-07-03 23:05:00,
2013-07-03 19:15:00,83.4,71.3,30.07,SSW,202,0.0,2.0,67,0.00,,,-99.99,WeatherLink 5.7,2013-07-03 23:15:00,
2013-07-03 19:25:00,83.2,72.0,30.07,North,0,1.0,3.0,69,0.00,,,-99.99,WeatherLink 5.7,2013-07-03 23:25:00,
2013-07-03 19:35:00,83.0,72.2,30.07,SW,225,0.0,2.0,70,0.00,,,-99.99,WeatherLink 5.7,2013-07-03 23:35:00,
2013-07-03 19:45:00,82.4,72.9,30.07,SSE,157,0.0,2.0,73,0.00,,,-99.99,WeatherLink 5.7,2013-07-03 23:45:00,
2013-07-03 19:50:00,82.2,72.7,30.07,South,180,1.0,5.0,73,0.00,,,-99.99,WeatherLink 5.7,2013-07-03 23:50:00,
2013-07-03 20:00:00,81.6,72.9,30.08,SSW,202,0.0,3.0,75,0.00,,,-99.99,WeatherLink 5.7,2013-07-04 00:00:00,
2013-07-03 20:10:00,81.1,72.4,30.08,North,0,1.0,3.0,75,0.00,,,-99.99,WeatherLink 5.7,2013-07-04 00:10:00,
2013-07-03 20:15:00,81.1,72.4,30.08,West,270,1.0,5.0,75,0.00,,,-99.99,WeatherLink 5.7,2013-07-04 00:15:00,
2013-07-03 20:20:00,80.9,72.2,30.08,SE,135,1.0,3.0,75,0.00,,,-99.99,WeatherLink 5.7,2013-07-04 00:20:00,
2013-07-03 20:26:00,80.9,72.2,30.08,ESE,112,1.0,5.0,75,0.00,,,-99.99,WeatherLink 5.7,2013-07-04 00:26:00,
2013-07-03 20:35:00,80.5,72.2,30.09,NE,45,0.0,2.0,76,0.00,,,-99.99,WeatherLink 5.7,2013-07-04 00:35:00,
2013-07-03 20:45:00,79.9,72.4,30.09,ENE,67,0.0,1.0,78,0.00,,,-99.99,WeatherLink 5.7,2013-07-04 00:45:00,
2013-07-03 20:50:00,79.8,71.9,30.09,SSW,202,1.0,3.0,77,0.00,,,-99.99,WeatherLink 5.7,2013-07-04 00:50:00,
2013-07-03 21:00:00,79.6,72.1,30.10,South,180,1.0,3.0,78,0.00,,,-99.99,WeatherLink 5.7,2013-07-04 01:00:00,
2013-07-03 21:10:00,79.2,72.1,30.10,WSW,247,1.0,4.0,79,0.00,,,-99.99,WeatherLink 5.7,2013-07-04 01:10:00,
2013-07-03 21:15:00,79.2,72.1,30.10,SSW,202,1.0,4.0,79,0.00,,,-99.99,WeatherLink 5.7,2013-07-04 01:15:00,
2013-07-03 21:25:00,78.8,72.1,30.10,South,180,0.0,3.0,80,0.00,,,-99.99,WeatherLink 5.7,2013-07-04 01:25:00,
2013-07-03 21:30:00,78.6,71.9,30.10,SW,225,0.0,3.0,80,0.00,,,-99.99,WeatherLink 5.7,2013-07-04 01:30:00,
2013-07-03 21:35:00,78.5,71.4,30.10,SW,225,0.0,2.0,79,0.00,,,-99.99,WeatherLink 5.7,2013-07-04 01:35:00,
2013-07-03 21:45:00,78.3,71.6,30.11,ESE,112,0.0,1.0,80,0.00,,,-99.99,WeatherLink 5.7,2013-07-04 01:45:00,
2013-07-03 21:50:00,78.3,71.6,30.11,ESE,112,0.0,3.0,80,0.00,,,-99.99,WeatherLink 5.7,2013-07-04 01:50:00,
2013-07-03 22:00:00,78.1,71.8,30.11,SE,135,0.0,1.0,81,0.00,,,-99.99,WeatherLink 5.7,2013-07-04 02:00:00,
2013-07-03 22:10:00,77.7,71.8,30.11,SSW,202,1.0,3.0,82,0.00,,,-99.99,WeatherLink 5.7,2013-07-04 02:10:00,
2013-07-03 22:20:00,77.6,72.0,30.11,SSW,202,1.0,5.0,83,0.00,,,-99.99,WeatherLink 5.7,2013-07-04 02:20:00,
2013-07-03 22:30:00,77.2,72.0,30.11,SW,225,1.0,2.0,84,0.00,,,-99.99,WeatherLink 5.7,2013-07-04 02:30:00,
2013-07-03 22:40:00,76.8,71.9,30.11,WSW,247,0.0,2.0,85,0.00,,,-99.99,WeatherLink 5.7,2013-07-04 02:40:00,
2013-07-03 22:45:00,76.8,71.9,30.10,SSW,202,0.0,2.0,85,0.00,,,-99.99,WeatherLink 5.7,2013-07-04 02:45:00,
2013-07-03 22:55:00,76.7,72.2,30.10,North,-999,0.0,0.0,86,0.00,,,-99.99,WeatherLink 5.7,2013-07-04 02:55:00,
2013-07-03 23:00:00,76.7,72.2,30.11,WNW,292,0.0,2.0,86,0.00,,,-99.99,WeatherLink 5.7,2013-07-04 03:00:00,
2013-07-03 23:10:00,76.5,72.0,30.11,SW,225,0.0,3.0,86,0.00,,,-99.99,WeatherLink 5.7,2013-07-04 03:10:00,
2013-07-03 23:15:00,76.3,71.8,30.11,SW,225,0.0,1.0,86,0.00,,,-99.99,WeatherLink 5.7,2013-07-04 03:15:00,
2013-07-03 23:25:00,76.1,71.6,30.11,SSE,157,0.0,2.0,86,0.00,,,-99.99,WeatherLink 5.7,2013-07-04 03:25:00,
2013-07-03 23:30:00,76.1,71.6,30.11,ESE,112,0.0,3.0,86,0.00,,,-99.99,WeatherLink 5.7,2013-07-04 03:30:00,
2013-07-03 23:36:00,76.1,71.6,30.11,SSE,157,1.0,3.0,86,0.00,,,-99.99,WeatherLink 5.7,2013-07-04 03:36:00,
2013-07-03 23:45:00,76.0,71.8,30.11,SSW,202,0.0,1.0,87,0.00,,,-99.99,WeatherLink 5.7,2013-07-04 03:45:00,
2013-07-03 23:50:00,75.8,71.7,30.11,SSW,202,0.0,1.0,87,0.00,,,-99.99,WeatherLink 5.7,2013-07-04 03:50:00,